FENGYUN 3F

Last updated on Sat Feb 07 2026 00:02:23 GMT+0000 (Coordinated Universal Time)

1 57490U 23111A 26037.61228373 .00000135 00000+0 84019-4 0 9997 2 57490 98.6988 109.9815 0001494 99.6638 260.4707 14.19912110130332
UTC large
Height (km)
Speed (km/s)
/
Latitude / Longitude
Inclination (degrees)
Orbital Period (minutes)
Azimuth
Elevation
Range (km)
Doppler Factor

Next 0 passes for location: London (51.5072 / 0.1276)

Sorry there are no passes over London.